Location: Newark
(9.4667°S, 159.8167°E)
Time: 16:22:15
(UTC+00:00)

Vanguard 1 - Pass Details

Date: 19 November 2019
Orbit: 651 x 3832 km, 34.3° (Epoch: 13 December)

Event Time Altitude Azimuth Distance (km) Brightness Sun altitude
Rises 08:26:53 0° 312° (NW) 3,511 13.3 -15.5°
Reaches altitude 10° 08:28:56 10° 314° (NW) 2,780 12.7 -15.9°
Maximum altitude 08:35:39 73° 39° (NE) 1,502 10.8 -17.4°
Drops below altitude 10° 08:48:23 10° 121° (ESE) 5,038 13.4 -20.3°
Sets 08:53:28 0° 123° (ESE) 6,562 14.0 -21.4°
